QPF
0.01 0.00 0.00 0.00 0.01 0.00 0.00 0.00 0.00 0.00 0.00 0.01 0.01 0.00 0.00 0.00 0.00 0.00 0.00 0.00 0.00 0.00 0.00 0.00 0.00 0.00 0.00 0.00 0.00 0.00 0.00 0.00 0.00 0.00 0.00 0.00 0.00 0.01 0.02 0.02 0.00 0.00 0.00 0.00
0.00 0.00 0.00 0.01 0.02 0.02 0.00 0.00 0.00 0.00 0.00 0.00 0.01 0.00 0.00 0.00 0.00 0.00 0.00 0.00 0.00 0.00 0.00 0.00 0.00 0.00 0.00 0.00 0.00 0.00 0.00 0.00 0.00 0.00 0.00 0.00 0.00 0.00 0.01 0.01 0.00 0.00 0.00 0.00
0.00 0.00 0.00 0.01 0.01 0.04 0.01 0.00 0.00 0.00 0.00 0.00 0.00 0.00 0.00 0.01 0.01 0.00 0.01 0.01 0.00 0.00 0.00 0.00 0.00 0.00 0.00 0.00 0.00 0.00 0.00 0.00 0.00 0.00 0.00 0.00 0.00 0.00 0.00 0.00 0.00 0.00 0.00 0.00
0.00 0.00 0.01 0.01 0.00 0.05 0.03 0.00 0.00 0.00 0.00 0.00 0.00 0.01 0.00 0.00 0.00 0.00 0.02 0.01 0.01 0.00 0.00 0.00 0.00 0.00 0.00 0.00 0.00 0.00 0.00 0.00 0.00 0.00 0.00 0.00 0.00 0.00 0.00 0.00 0.00 0.00 0.00 0.00
0.00 0.00 0.01 0.03 0.02 0.07 0.02 0.00 0.00 0.01 0.00 0.00 0.00 0.01 0.02 0.02 0.02 0.01 0.02 0.01 0.01 0.01 0.00 0.00 0.00 0.00 0.00 0.00 0.00 0.00 0.00 0.00 0.00 0.00 0.00 0.00 0.00 0.00 0.00 0.00 0.00 0.00 0.00 0.00
0.02 0.01 0.00 0.01 0.02 0.05 0.02 0.00 0.00 0.01 0.00 0.00 0.01 0.01 0.01 0.03 0.04 0.02 0.01 0.00 0.01 0.01 0.01 0.01 0.00 0.00 0.00 0.00 0.00 0.00 0.00 0.00 0.00 0.00 0.00 0.00 0.00 0.00 0.00 0.00 0.00 0.00 0.00 0.00
0.01 0.01 0.00 0.02 0.04 0.02 0.00 0.00 0.02 0.01 0.01 0.00 0.00 0.00 0.01 0.01 0.01 0.01 0.00 0.01 0.02 0.00 0.00 0.00 0.00 0.00 0.00 0.00 0.00 0.00 0.00 0.00 0.01 0.00 0.00 0.00 0.00 0.00 0.00 0.00 0.00 0.00 0.01 0.00
0.01 0.01 0.01 0.01 0.04 0.03 0.00 0.00 0.00 0.01 0.01 0.01 0.00 0.01 0.01 0.00 0.00 0.00 0.00 0.00 0.00 0.01 0.02 0.00 0.00 0.00 0.00 0.00 0.00 0.00 0.00 0.00 0.00 0.00 0.01 0.00 0.00 0.01 0.02 0.00 0.03 0.04 0.01 0.01
0.01 0.01 0.03 0.04 0.04 0.04 0.01 0.00 0.01 0.01 0.01 0.00 0.00 0.00 0.00 0.00 0.00 0.00 0.00 0.01 0.01 0.01 0.00 0.00 0.00 0.00 0.00 0.00 0.00 0.00 0.00 0.00 0.00 0.01 0.01 0.01 0.01 0.01 0.00 0.00 0.02 0.03 0.01 0.01
0.02 0.02 0.03 0.04 0.05 0.04 0.01 0.00 0.01 0.02 0.01 0.00 0.00 0.00 0.00 0.00 0.00 0.00 0.01 0.00 0.01 0.05 0.02 0.00 0.00 0.00 0.00 0.00 0.01 0.02 0.00 0.00 0.00 0.00 0.01 0.00 0.00 0.00 0.01 0.00 0.01 0.00 0.00 0.00
0.00 0.01 0.02 0.02 0.03 0.05 0.03 0.00 0.00 0.02 0.01 0.00 0.00 0.00 0.00 0.00 0.00 0.00 0.00 0.00 0.01 0.01 0.00 0.00 0.00 0.01 0.01 0.00 0.00 0.01 0.01 0.00 0.00 0.00 0.01 0.00 0.01 0.03 0.06 0.03 0.00 0.00 0.00 0.00
0.00 0.00 0.00 0.00 0.00 0.01 0.05 0.00 0.00 0.01 0.02 0.00 0.00 0.00 0.00 0.00 0.00 0.00 0.00 0.00 0.00 0.00 0.01 0.01 0.01 0.00 0.00 0.01 0.01 0.00 0.01 0.00 0.00 0.00 0.00 0.00 0.01 0.06 0.10 0.01 0.00 0.00 0.00 0.00
0.00 0.00 0.00 0.00 0.00 0.00 0.04 0.00 0.00 0.01 0.02 0.00 0.00 0.00 0.00 0.00 0.00 0.00 0.00 0.00 0.00 0.00 0.00 0.00 0.00 0.01 0.00 0.01 0.01 0.00 0.00 0.00 0.01 0.00 0.00 0.01 0.01 0.01 0.04 0.01 0.00 0.00 0.00 0.00
0.00 0.00 0.01 0.01 0.01 0.01 0.04 0.01 0.00 0.00 0.01 0.01 0.00 0.00 0.00 0.00 0.00 0.00 0.00 0.00 0.00 0.00 0.00 0.00 0.00 0.00 0.00 0.00 0.00 0.00 0.00 0.00 0.00 0.00 0.00 0.01 0.01 0.00 0.00 0.00 0.00 0.00 0.00 0.00
0.00 0.01 0.01 0.02 0.02 0.02 0.04 0.02 0.00 0.00 0.01 0.00 0.00 0.00 0.00 0.00 0.00 0.00 0.00 0.00 0.00 0.00 0.00 0.00 0.00 0.00 0.00 0.00 0.00 0.00 0.01 0.00 0.00 0.01 0.00 0.00 0.00 0.00 0.00 0.00 0.00 0.02 0.01 0.00
0.01 0.01 0.01 0.02 0.03 0.05 0.04 0.03 0.00 0.01 0.01 0.01 0.00 0.00 0.00 0.00 0.00 0.00 0.00 0.00 0.00 0.00 0.00 0.01 0.00 0.00 0.01 0.00 0.00 0.00 0.00 0.00 0.00 0.00 0.00 0.00 0.00 0.00 0.00 0.00 0.01 0.01 0.00 0.00
0.01 0.01 0.01 0.02 0.04 0.03 0.01 0.01 0.00 0.00 0.00 0.00 0.00 0.00 0.00 0.00 0.00 0.00 0.00 0.00 0.00 0.00 0.00 0.00 0.00 0.00 0.01 0.00 0.00 0.00 0.00 0.00 0.00 0.00 0.00 0.00 0.00 0.00 0.00 0.00 0.00 0.00 0.00 0.00
0.01 0.02 0.02 0.02 0.04 0.01 0.00 0.01 0.02 0.00 0.00 0.00 0.00 0.00 0.00 0.00 0.00 0.00 0.00 0.00 0.00 0.00 0.00 0.00 0.00 0.00 0.00 0.00 0.00 0.00 0.00 0.00 0.00 0.00 0.00 0.00 0.00 0.00 0.01 0.00 0.00 0.00 0.00 0.00
0.01 0.01 0.02 0.03 0.02 0.01 0.00 0.01 0.04 0.00 0.00 0.00 0.00 0.00 0.00 0.00 0.01 0.01 0.00 0.00 0.00 0.00 0.00 0.00 0.00 0.00 0.00 0.00 0.00 0.00 0.00 0.00 0.00 0.00 0.00 0.00 0.00 0.00 0.00 0.00 0.00 0.00 0.00 0.00
0.01 0.01 0.01 0.00 0.00 0.00 0.00 0.01 0.03 0.00 0.00 0.00 0.00 0.00 0.00 0.00 0.01 0.01 0.00 0.00 0.00 0.00 0.00 0.00 0.00 0.00 0.00 0.00 0.00 0.00 0.00 0.00 0.00 0.00 0.00 0.00 0.00 0.00 0.00 0.00 0.00 0.00 0.00 0.00
0.00 0.00 0.00 0.00 0.00 0.00 0.00 0.00 0.00 0.00 0.00 0.00 0.00 0.00 0.00 0.00 0.00 0.00 0.00 0.00 0.00 0.00 0.00 0.00 0.00 0.00 0.00 0.00 0.00 0.00 0.00 0.00 0.00 0.00 0.00 0.00 0.00 0.00 0.00 0.00 0.00 0.00 0.00 0.00
0.00 0.00 0.00 0.00 0.00 0.00 0.00 0.00 0.00 0.00 0.00 0.00 0.00 0.00 0.00 0.00 0.00 0.00 0.00 0.00 0.00 0.00 0.01 0.01 0.00 0.00 0.00 0.00 0.00 0.00 0.00 0.00 0.00 0.00 0.00 0.00 0.00 0.00 0.00 0.00 0.00 0.00 0.00 0.00
0.00 0.00 0.00 0.00 0.00 0.00 0.00 0.00 0.00 0.00 0.00 0.00 0.00 0.00 0.00 0.00 0.00 0.00 0.00 0.00 0.00 0.00 0.01 0.00 0.00 0.00 0.00 0.00 0.00 0.00 0.00 0.00 0.00 0.00 0.00 0.00 0.00 0.00 0.00 0.00 0.00 0.00 0.00 0.00
0.00 0.00 0.00 0.00 0.00 0.00 0.00 0.00 0.00 0.00 0.00 0.00 0.00 0.00 0.00 0.00 0.00 0.00 0.00 0.00 0.00 0.00 0.00 0.00 0.00 0.00 0.00 0.00 0.00 0.00 0.00 0.00 0.00 0.00 0.00 0.00 0.00 0.00 0.00 0.00 0.00 0.00 0.00 0.00
0.00 0.00 0.00 0.00 0.00 0.00 0.00 0.00 0.00 0.00 0.00 0.00 0.00 0.00 0.00 0.00 0.00 0.00 0.00 0.00 0.00 0.00 0.00 0.00 0.00 0.00 0.00 0.00 0.00 0.00 0.00 0.00 0.00 0.00 0.00 0.00 0.00 0.00 0.00 0.00 0.00 0.00 0.00 0.00
0.00 0.00 0.00 0.00 0.00 0.00 0.00 0.00 0.00 0.00 0.00 0.00 0.00 0.00 0.00 0.00 0.00 0.00 0.00 0.00 0.00 0.00 0.00 0.00 0.00 0.00 0.00 0.00 0.00 0.00 0.00 0.00 0.00 0.00 0.00 0.00 0.00 0.00 0.00 0.00 0.00 0.00 0.00 0.00
0.00 0.00 0.00 0.00 0.00 0.00 0.00 0.00 0.00 0.00 0.00 0.00 0.00 0.00 0.00 0.00 0.00 0.00 0.00 0.00 0.00 0.00 0.00 0.00 0.00 0.00 0.00 0.00 0.00 0.00 0.00 0.00 0.00 0.00 0.00 0.00 0.00 0.00 0.00 0.00 0.00 0.00 0.00 0.00
MSLP
1020.90 1020.96 1021.00 1020.97 1020.92 1020.90 1021.05 1021.59 1021.45 1019.93 1019.45 1020.39 1019.82 1019.02 1018.11 1017.09 1016.23 1016.03 1015.27 1014.83 1014.23 1013.30 1011.98 1011.08 1010.57 1009.55 1008.94 1008.53 1008.09 1007.85 1007.82 1007.95 1007.92 1007.21 1006.53 1006.42 1006.88 1007.67 1008.40 1008.54 1007.95 1007.17 1005.72 1003.27
1020.62 1020.66 1020.67 1020.70 1020.72 1020.81 1021.33 1021.55 1021.14 1019.56 1019.85 1020.27 1019.52 1018.80 1017.97 1017.11 1016.25 1015.67 1015.08 1014.42 1013.52 1013.02 1012.08 1011.51 1010.47 1010.06 1009.75 1009.25 1008.97 1008.64 1008.23 1008.65 1009.05 1007.96 1007.41 1007.48 1007.71 1008.47 1008.98 1009.20 1009.04 1007.94 1006.82 1004.18
1020.22 1020.28 1020.34 1020.39 1020.43 1020.57 1021.25 1021.87 1021.64 1020.63 1020.17 1019.95 1019.65 1019.09 1018.03 1017.12 1016.03 1015.63 1014.96 1014.15 1013.54 1013.19 1012.09 1011.45 1010.86 1010.17 1010.10 1009.73 1009.43 1009.15 1009.10 1009.52 1009.75 1009.46 1009.02 1009.13 1008.73 1008.33 1008.70 1009.13 1009.13 1007.76 1006.65 1004.93
1019.73 1019.84 1020.01 1020.04 1020.02 1020.32 1021.22 1021.74 1021.51 1020.85 1020.64 1020.18 1019.70 1019.27 1018.32 1017.08 1016.12 1015.03 1014.55 1013.67 1012.68 1012.70 1012.21 1011.68 1011.27 1010.70 1010.04 1010.02 1010.00 1009.75 1009.93 1010.25 1010.15 1009.73 1009.64 1009.60 1009.16 1008.80 1008.52 1008.58 1008.24 1007.37 1005.70 1004.62
1019.35 1019.46 1019.55 1019.59 1019.67 1020.11 1021.11 1021.41 1021.39 1020.86 1020.60 1019.99 1019.38 1018.61 1017.39 1016.85 1015.57 1015.13 1014.34 1014.21 1013.24 1012.76 1012.39 1012.10 1011.79 1011.59 1011.51 1011.31 1010.99 1010.81 1010.77 1010.81 1010.42 1009.98 1009.90 1009.51 1008.89 1008.38 1008.13 1007.51 1006.98 1006.09 1005.10 1003.82
1018.89 1019.04 1019.07 1019.23 1019.31 1019.83 1020.75 1020.99 1020.98 1021.19 1020.17 1019.59 1019.30 1017.95 1016.93 1016.16 1015.36 1014.41 1014.11 1014.12 1013.55 1012.52 1012.15 1012.06 1011.87 1011.74 1011.71 1011.78 1011.83 1011.60 1011.46 1011.32 1011.22 1010.51 1010.37 1009.78 1008.35 1006.97 1006.49 1005.67 1005.47 1005.01 1004.46 1003.77
1018.34 1018.39 1018.55 1018.67 1018.88 1019.46 1020.26 1020.52 1020.59 1020.41 1019.53 1018.95 1018.09 1017.10 1016.57 1015.81 1015.09 1014.67 1013.94 1013.40 1012.99 1012.26 1011.91 1012.13 1011.93 1011.73 1011.53 1011.37 1011.27 1011.47 1011.64 1011.76 1011.93 1011.60 1011.20 1009.75 1006.97 1005.95 1005.43 1004.67 1004.14 1003.83 1003.79 1004.01
1017.78 1017.80 1017.97 1018.10 1018.29 1018.66 1019.68 1020.10 1020.55 1020.46 1019.28 1018.40 1017.52 1017.13 1016.38 1015.68 1015.10 1014.55 1013.88 1013.25 1012.76 1012.51 1012.88 1013.05 1012.74 1012.18 1011.69 1010.67 1010.17 1010.45 1010.85 1011.53 1011.98 1011.97 1011.14 1008.82 1006.95 1005.40 1004.72 1004.27 1003.87 1003.94 1004.12 1004.15
1017.15 1017.22 1017.41 1017.53 1017.73 1018.13 1019.02 1019.30 1019.59 1019.79 1019.30 1017.80 1017.65 1016.99 1016.44 1016.19 1015.79 1014.95 1014.45 1013.56 1013.10 1012.92 1013.58 1013.94 1013.91 1013.03 1011.93 1011.16 1010.00 1009.76 1010.21 1010.75 1011.62 1011.58 1010.81 1008.91 1006.20 1004.95 1004.71 1004.48 1004.20 1004.06 1004.09 1003.98
1016.54 1016.64 1016.80 1016.95 1017.23 1017.56 1018.39 1018.69 1018.81 1019.23 1018.57 1017.58 1017.17 1016.82 1016.27 1015.83 1015.63 1015.33 1014.92 1014.60 1013.94 1013.65 1014.35 1014.77 1014.38 1013.18 1011.95 1011.06 1010.23 1009.88 1009.93 1010.64 1010.72 1010.90 1010.38 1008.44 1005.89 1004.96 1004.51 1005.02 1005.04 1004.50 1004.23 1003.95
1016.05 1016.12 1016.27 1016.45 1016.78 1017.05 1017.86 1018.25 1018.31 1018.75 1018.24 1017.41 1016.71 1016.43 1016.33 1016.07 1015.96 1015.82 1015.45 1015.07 1015.04 1014.79 1014.81 1015.04 1014.17 1013.10 1011.86 1011.13 1010.06 1009.84 1009.48 1009.50 1009.95 1010.37 1009.90 1008.25 1005.75 1004.91 1004.74 1004.70 1004.21 1004.11 1004.13 1003.95
1015.47 1015.63 1015.81 1016.07 1016.36 1016.69 1017.18 1017.91 1017.77 1018.03 1018.60 1017.56 1016.53 1016.25 1015.82 1015.60 1015.39 1015.65 1015.45 1015.50 1015.48 1015.64 1015.49 1015.49 1014.86 1013.44 1012.47 1011.67 1010.45 1009.93 1009.03 1009.23 1009.03 1008.67 1008.07 1006.80 1006.02 1005.34 1004.77 1004.45 1004.02 1003.75 1003.77 1003.94
1014.77 1015.01 1015.25 1015.54 1015.87 1016.24 1016.67 1017.21 1017.48 1017.95 1018.04 1017.25 1016.69 1015.41 1014.23 1014.35 1014.39 1014.59 1015.32 1015.22 1014.77 1015.09 1015.08 1015.55 1015.37 1014.23 1012.82 1011.90 1010.81 1009.98 1009.19 1008.83 1008.18 1007.72 1007.50 1006.90 1006.19 1005.34 1004.70 1004.47 1004.15 1003.95 1004.16 1004.35
1013.96 1014.25 1014.53 1014.91 1015.27 1015.63 1015.99 1016.63 1017.03 1017.44 1017.61 1016.92 1015.55 1014.17 1013.97 1013.09 1013.36 1013.69 1013.80 1014.09 1014.10 1014.51 1014.96 1015.29 1015.16 1014.42 1012.96 1011.95 1010.93 1009.87 1009.29 1008.58 1007.73 1007.52 1007.25 1007.12 1005.87 1005.50 1004.62 1004.40 1004.12 1004.50 1005.12 1005.53
1013.10 1013.43 1013.78 1014.16 1014.61 1015.10 1015.53 1016.03 1016.36 1016.66 1017.24 1016.73 1015.71 1014.35 1012.71 1012.11 1012.48 1012.81 1013.10 1013.53 1013.92 1014.38 1014.70 1014.71 1014.30 1013.49 1012.71 1011.67 1010.82 1009.26 1008.45 1007.91 1007.72 1007.76 1007.16 1006.47 1005.63 1004.95 1004.44 1004.24 1004.57 1004.79 1005.86 1006.91
1012.11 1012.53 1012.98 1013.44 1013.92 1014.44 1015.31 1015.69 1015.93 1016.02 1016.61 1016.95 1015.89 1013.75 1012.26 1011.69 1011.88 1012.27 1012.63 1012.97 1013.46 1013.92 1014.17 1013.99 1013.48 1012.47 1012.29 1011.88 1010.79 1008.76 1007.76 1007.30 1007.17 1006.88 1006.01 1005.52 1005.09 1004.88 1004.74 1005.11 1005.99 1006.85 1007.33 1007.93
1011.00 1011.68 1012.35 1012.89 1013.22 1013.84 1014.21 1014.55 1014.20 1014.58 1016.04 1016.63 1015.90 1014.11 1011.97 1011.22 1011.27 1011.72 1012.12 1012.37 1012.81 1013.23 1013.50 1013.31 1012.86 1012.19 1012.09 1011.80 1010.71 1008.74 1008.39 1007.80 1006.97 1006.15 1005.86 1005.87 1005.64 1005.62 1006.03 1006.61 1007.69 1008.20 1008.78 1009.41
1009.81 1010.61 1011.48 1012.20 1012.76 1013.60 1014.17 1013.96 1013.83 1014.68 1015.68 1016.22 1015.68 1014.02 1012.53 1010.78 1011.24 1011.68 1011.73 1012.09 1012.44 1012.81 1012.82 1012.56 1012.22 1011.80 1011.64 1011.47 1010.86 1010.36 1009.53 1008.37 1007.60 1007.16 1006.73 1006.82 1006.84 1006.59 1006.81 1007.24 1008.29 1009.14 1009.92 1010.51
1008.52 1009.59 1010.85 1011.82 1012.30 1012.70 1013.20 1013.67 1014.08 1014.45 1015.10 1015.19 1014.77 1013.82 1012.30 1010.67 1010.97 1011.44 1011.57 1011.79 1012.14 1012.32 1012.30 1012.02 1012.12 1011.63 1011.73 1011.89 1011.81 1011.62 1011.30 1010.79 1010.08 1008.90 1008.33 1008.08 1008.12 1007.99 1007.70 1008.13 1009.00 1009.90 1010.84 1011.42
1007.31 1008.97 1010.76 1011.37 1011.80 1012.18 1013.02 1014.41 1014.55 1014.35 1014.47 1014.08 1013.54 1012.81 1012.22 1011.11 1011.12 1011.66 1012.05 1011.82 1011.97 1011.98 1011.62 1011.52 1011.74 1011.93 1012.40 1012.67 1012.78 1013.00 1012.78 1012.33 1011.61 1010.59 1010.28 1009.99 1009.83 1009.67 1009.48 1009.78 1009.94 1010.75 1011.66 1012.22
1007.81 1009.11 1009.84 1010.56 1011.08 1012.16 1013.26 1013.72 1014.16 1014.09 1013.82 1013.01 1012.18 1012.01 1011.61 1010.95 1011.33 1011.74 1012.11 1012.11 1012.07 1012.04 1011.42 1011.55 1011.77 1012.28 1013.12 1013.45 1013.55 1013.73 1013.60 1013.45 1013.17 1012.99 1012.62 1012.38 1011.99 1011.43 1010.83 1011.21 1011.63 1012.14 1012.68 1013.17
1006.99 1007.58 1009.11 1010.29 1011.08 1011.76 1012.26 1012.50 1012.72 1012.81 1012.17 1011.46 1011.33 1010.95 1011.04 1010.95 1010.98 1011.77 1012.29 1012.48 1012.49 1012.19 1011.72 1011.95 1012.46 1013.83 1014.35 1014.39 1014.46 1014.46 1014.57 1014.40 1014.24 1014.09 1013.91 1013.60 1013.27 1012.84 1012.52 1012.50 1012.87 1013.32 1013.70 1014.15
1006.63 1007.77 1009.00 1009.55 1010.62 1010.91 1011.00 1010.88 1011.52 1011.42 1010.67 1010.35 1010.47 1010.72 1010.85 1011.08 1011.39 1012.24 1012.51 1012.70 1012.50 1012.08 1012.65 1013.05 1014.26 1015.02 1015.30 1015.42 1015.45 1015.43 1015.45 1015.54 1015.45 1015.30 1015.12 1014.90 1014.54 1014.29 1013.93 1013.94 1014.13 1014.41 1014.83 1015.18
1007.07 1007.91 1008.95 1009.44 1009.93 1009.70 1009.67 1009.57 1009.54 1009.54 1009.68 1009.80 1010.14 1010.87 1010.98 1011.44 1011.85 1012.17 1012.82 1012.72 1012.74 1013.24 1013.91 1014.79 1015.66 1015.90 1016.16 1016.17 1016.27 1016.38 1016.53 1016.74 1016.87 1016.79 1016.48 1016.22 1015.84 1015.63 1015.48 1015.30 1015.33 1015.52 1015.93 1016.34
1007.60 1008.16 1009.15 1009.51 1009.46 1009.48 1009.47 1009.48 1009.71 1009.90 1009.76 1009.66 1010.39 1011.06 1011.39 1012.06 1012.50 1012.67 1013.12 1013.31 1013.78 1014.57 1015.57 1016.41 1016.85 1016.96 1017.04 1017.05 1017.11 1017.26 1017.51 1017.83 1018.01 1018.01 1017.93 1017.61 1017.29 1016.97 1016.72 1016.62 1016.56 1016.65 1016.98 1017.47
1008.79 1009.54 1009.98 1010.00 1010.12 1010.44 1010.37 1010.48 1010.63 1010.55 1010.35 1010.13 1010.68 1011.70 1012.45 1012.85 1013.09 1013.65 1013.98 1014.56 1015.50 1016.59 1017.05 1017.57 1017.82 1017.97 1017.95 1017.93 1017.99 1018.05 1018.34 1018.62 1018.82 1018.82 1018.68 1018.55 1018.47 1018.18 1018.03 1017.92 1017.92 1018.00 1018.16 1018.53
1010.17 1011.11 1011.25 1011.14 1011.59 1011.95 1011.95 1011.87 1011.70 1011.17 1010.94 1011.26 1011.75 1012.64 1013.17 1013.46 1014.20 1015.46 1015.95 1016.65 1016.96 1017.38 1017.96 1018.34 1018.47 1018.61 1018.60 1018.64 1018.58 1018.69 1018.89 1019.16 1019.20 1019.28 1019.43 1019.48 1019.37 1019.22 1019.11 1019.22 1019.42 1019.39 1019.62 1019.88
Thickness
5383 5378 5374 5370 5367 5364 5359 5352 5349 5360 5361 5352 5359 5368 5379 5392 5395 5392 5395 5395 5406 5413 5441 5452 5457 5471 5480 5484 5488 5488 5494 5490 5491 5512 5527 5532 5529 5516 5513 5505 5519 5523 5536 5554
5374 5370 5365 5359 5354 5351 5345 5344 5346 5349 5346 5314 5353 5361 5371 5378 5384 5387 5388 5392 5408 5415 5430 5430 5453 5459 5468 5471 5474 5476 5487 5474 5474 5504 5515 5513 5505 5508 5504 5499 5496 5514 5510 5536
5367 5362 5355 5349 5344 5340 5335 5328 5318 5330 5335 5338 5338 5343 5354 5361 5376 5374 5379 5387 5403 5403 5420 5433 5434 5449 5460 5461 5466 5472 5476 5470 5472 5473 5484 5487 5488 5500 5498 5489 5475 5498 5507 5527
5361 5354 5347 5341 5337 5332 5325 5319 5318 5323 5302 5316 5331 5334 5342 5351 5361 5384 5382 5388 5403 5402 5409 5417 5422 5435 5444 5452 5453 5462 5459 5453 5466 5473 5473 5476 5478 5484 5491 5488 5495 5492 5520 5526
5354 5347 5340 5336 5331 5324 5317 5307 5305 5312 5312 5321 5325 5335 5349 5348 5365 5371 5376 5374 5386 5395 5399 5407 5410 5417 5422 5428 5432 5438 5437 5441 5455 5457 5465 5468 5463 5474 5477 5489 5495 5510 5523 5530
5348 5342 5337 5331 5326 5319 5309 5307 5304 5302 5310 5313 5318 5333 5351 5355 5370 5380 5380 5369 5374 5385 5403 5403 5406 5412 5413 5414 5417 5420 5428 5431 5431 5443 5451 5448 5451 5478 5483 5497 5505 5513 5513 5529
5343 5338 5333 5328 5322 5314 5306 5302 5300 5303 5307 5317 5332 5343 5349 5358 5369 5366 5377 5383 5386 5399 5405 5403 5406 5406 5409 5412 5414 5416 5415 5418 5412 5416 5429 5419 5476 5484 5487 5495 5512 5519 5519 5519
5340 5336 5330 5325 5319 5312 5303 5296 5293 5294 5308 5322 5335 5336 5346 5352 5360 5369 5375 5379 5390 5390 5390 5368 5387 5391 5401 5414 5420 5418 5418 5410 5383 5384 5412 5448 5466 5483 5487 5488 5505 5505 5509 5514
5338 5333 5327 5323 5317 5310 5301 5297 5295 5295 5299 5318 5321 5332 5339 5339 5343 5353 5364 5377 5380 5386 5362 5357 5370 5381 5402 5393 5425 5432 5424 5414 5403 5392 5405 5428 5472 5484 5491 5491 5490 5498 5505 5512
5335 5331 5326 5322 5316 5310 5302 5296 5294 5294 5306 5316 5325 5319 5335 5345 5343 5341 5356 5359 5369 5376 5351 5359 5359 5381 5411 5410 5414 5415 5415 5407 5405 5410 5386 5427 5472 5483 5490 5470 5482 5492 5500 5509
5332 5328 5325 5321 5317 5313 5305 5299 5297 5296 5307 5314 5328 5334 5332 5333 5338 5339 5351 5353 5360 5365 5356 5369 5374 5382 5406 5407 5428 5419 5423 5415 5404 5410 5388 5419 5471 5476 5485 5476 5487 5490 5493 5503
5329 5326 5322 5319 5317 5314 5310 5304 5305 5305 5303 5315 5325 5330 5334 5338 5342 5340 5347 5350 5352 5354 5355 5361 5366 5390 5393 5401 5413 5411 5427 5423 5421 5416 5430 5456 5462 5467 5470 5475 5483 5493 5496 5497
5328 5324 5321 5319 5317 5315 5313 5309 5308 5306 5309 5316 5318 5331 5342 5346 5348 5350 5344 5346 5360 5357 5362 5357 5358 5373 5389 5394 5409 5413 5418 5420 5433 5443 5442 5445 5458 5470 5476 5481 5485 5489 5490 5491
5327 5325 5322 5320 5318 5317 5315 5312 5311 5309 5308 5318 5322 5341 5344 5355 5356 5357 5360 5360 5363 5362 5357 5355 5361 5363 5389 5394 5407 5415 5413 5419 5430 5438 5433 5440 5458 5460 5474 5477 5483 5483 5474 5473
5328 5326 5324 5322 5320 5318 5316 5315 5315 5314 5309 5313 5321 5338 5357 5365 5363 5364 5364 5363 5363 5359 5363 5366 5371 5376 5383 5392 5402 5415 5429 5429 5427 5424 5433 5442 5455 5470 5476 5481 5481 5477 5465 5454
5331 5330 5327 5324 5322 5320 5318 5318 5318 5318 5315 5314 5322 5344 5361 5369 5368 5369 5369 5369 5368 5365 5366 5373 5376 5388 5389 5390 5403 5431 5442 5442 5441 5443 5458 5460 5465 5471 5473 5465 5457 5448 5446 5443
5336 5333 5329 5326 5325 5324 5325 5323 5327 5326 5317 5315 5320 5337 5365 5375 5377 5374 5374 5375 5374 5371 5369 5374 5377 5387 5390 5385 5393 5428 5432 5437 5443 5451 5457 5455 5460 5460 5455 5448 5436 5431 5427 5425
5341 5338 5334 5330 5327 5322 5321 5325 5328 5324 5320 5319 5326 5341 5358 5381 5375 5375 5377 5377 5375 5371 5374 5381 5384 5391 5390 5396 5405 5405 5412 5429 5436 5441 5446 5447 5448 5451 5447 5444 5433 5424 5418 5414
5348 5343 5335 5329 5330 5329 5326 5325 5325 5325 5326 5325 5333 5344 5355 5383 5383 5380 5379 5378 5377 5376 5377 5383 5384 5390 5396 5391 5389 5388 5392 5398 5404 5421 5426 5430 5430 5435 5443 5439 5429 5417 5410 5405
5354 5343 5329 5330 5330 5328 5323 5313 5319 5322 5327 5338 5346 5356 5354 5379 5371 5377 5371 5376 5373 5384 5383 5386 5383 5388 5380 5378 5378 5373 5376 5382 5388 5400 5401 5405 5406 5411 5419 5417 5420 5410 5401 5398
5344 5337 5340 5337 5333 5326 5320 5320 5324 5324 5341 5350 5360 5360 5360 5377 5369 5365 5371 5363 5369 5373 5384 5384 5389 5390 5372 5369 5368 5365 5365 5367 5373 5375 5380 5380 5384 5390 5401 5395 5394 5391 5389 5388
5352 5353 5345 5337 5333 5329 5331 5332 5333 5342 5355 5359 5363 5367 5371 5369 5377 5366 5363 5362 5365 5368 5383 5389 5395 5362 5355 5358 5358 5358 5354 5357 5360 5362 5364 5367 5370 5376 5378 5380 5378 5377 5376 5373
5352 5348 5341 5344 5336 5340 5340 5348 5338 5350 5360 5363 5364 5368 5369 5370 5368 5367 5366 5355 5354 5371 5344 5377 5360 5347 5346 5344 5345 5348 5347 5346 5347 5348 5350 5351 5354 5357 5362 5362 5361 5361 5359 5358
5346 5348 5348 5344 5337 5351 5352 5364 5369 5368 5364 5372 5369 5367 5373 5360 5362 5357 5347 5354 5371 5377 5359 5361 5340 5336 5336 5336 5337 5337 5336 5334 5327 5330 5333 5334 5337 5339 5340 5341 5342 5343 5343 5341
5342 5343 5333 5331 5346 5352 5359 5363 5364 5361 5360 5366 5365 5362 5360 5363 5357 5368 5357 5373 5373 5361 5336 5325 5325 5323 5324 5325 5326 5322 5321 5316 5314 5311 5309 5312 5316 5320 5323 5323 5323 5324 5323 5322
5329 5324 5335 5345 5350 5346 5351 5353 5353 5352 5357 5365 5362 5364 5355 5341 5339 5366 5372 5364 5346 5316 5311 5311 5311 5312 5312 5315 5314 5312 5306 5301 5296 5293 5296 5298 5299 5302 5305 5306 5304 5303 5303 5302
5317 5316 5319 5331 5331 5332 5335 5338 5342 5348 5360 5364 5369 5363 5354 5349 5361 5343 5334 5307 5307 5307 5299 5299 5299 5302 5301 5302 5302 5300 5299 5294 5292 5289 5291 5289 5290 5289 5289 5286 5285 5284 5282 5281